This is the latest recevied weather packets stored in our database for station/object IT9CNT. If no packets are shown the sender has not sent any weather packets the latest 10 day(s).
| Time | Temp. | Humidity | Pressure | Rain* | Wind** | Luminosity | Snow |
|---|---|---|---|---|---|---|---|
| 1778237763 | 20.56° C | 75% | 1009.8 hPa | 0 mm | - | - | - |
| 1778237703 | 20.56° C | 74% | 1010 hPa | 0 mm | - | - | - |
| 1778237643 | 21.11° C | 75% | 1010 hPa | 0 mm | - | - | - |
| 1778237583 | 20.56° C | 76% | 1010.1 hPa | 0 mm | - | - | - |
| 1778237523 | 20.56° C | 75% | 1009.8 hPa | 0 mm | - | - | - |
| 1778237463 | 21.11° C | 75% | 1010 hPa | 0 mm | - | - | - |
| 1778237403 | 21.11° C | 74% | 1009.8 hPa | 0 mm | - | - | - |
| 1778237343 | 21.11° C | 75% | 1010 hPa | 0 mm | - | - | - |
| 1778237283 | 20.56° C | 75% | 1009.9 hPa | 0 mm | - | - | - |
| 1778237223 | 21.11° C | 75% | 1010.1 hPa | 0 mm | - | - | - |
| 1778237163 | 21.67° C | 75% | 1010 hPa | 0 mm | - | - | - |
| 1778237103 | 20.56° C | 74% | 1009.9 hPa | 0 mm | - | - | - |
| 1778237043 | 20.56° C | 75% | 1009.9 hPa | 0 mm | - | - | - |
| 1778236983 | 20.56° C | 75% | 1010 hPa | 0 mm | - | - | - |
| 1778236923 | 20.56° C | 75% | 1010 hPa | 0 mm | - | - | - |
| 1778236863 | 20.56° C | 74% | 1009.8 hPa | 0 mm | - | - | - |
| 1778236803 | 20.56° C | 74% | 1010.1 hPa | 0 mm | - | - | - |
| 1778236744 | 21.67° C | 74% | 1010 hPa | 0 mm | - | - | - |
| 1778236684 | 21.11° C | 75% | 1009.9 hPa | 0 mm | - | - | - |
| 1778236624 | 20.56° C | 75% | 1010.1 hPa | 0 mm | - | - | - |
| 1778236564 | 20.56° C | 75% | 1009.8 hPa | 0 mm | - | - | - |
| 1778236504 | 20.56° C | 74% | 1009.9 hPa | 0 mm | - | - | - |
| 1778236444 | 21.11° C | 74% | 1009.9 hPa | 0 mm | - | - | - |
| 1778236384 | 20.56° C | 75% | 1009.9 hPa | 0 mm | - | - | - |
| 1778236323 | 20.56° C | 75% | 1009.9 hPa | 0 mm | - | - | - |
* Rain latest hour (hover to see other rain measurements)
** Current wind speed in m/s (hover to see current wind gust speed)